Terug naar catalogus

DMSP 5D-3 F19 DEB

ActiefSSO
NORAD 39633·DEBRIS·🇺🇸 United States

Gelanceerd Apr 3, 2014 vanaf Vandenberg Space Force Base

Loading…

Volgende Passages (komende 24 uur)

TLE

VersSource: Space-Track

Epoch: Sep 14, 2026, 11:44 UTC

1 39633U 14015D   26257.48956880  .00001171  00000-0  50331-3 0  9990
2 39633  98.6725 269.3870 0004337 199.3497 160.7520 14.26589338644371

Volg DMSP 5D-3 F19 DEB in realtime met AllMySat

Download on the App Store